Regional Weather Roundup
Issued by NWS Cleveland, OH

Home | Current Version | Previous Version | Graphics & Text | Print | Product List | Glossary On
Versions: 1 2 3 4 5 6 7 8 9 10 11 12 13 14 15 16 17 18 19 20 21 22 23 24 25 26 27 28 29 30 31 32 33 34 35 36 37 38 39 40 41 42 43 44 45 46 47 48 49 50
000
ASUS41 KCLE 061602
RWRCLE
OHIO REGIONAL WEATHER ROUNDUP
NATIONAL WEATHER SERVICE CLEVELAND, OH
1200 PM EDT FRI MAY 06 2016

NOTE: "FAIR" INDICATES FEW OR NO CLOUDS BELOW 12,000 FEET WITH NO
SIGNIFICANT WEATHER AND/OR OBSTRUCTIONS TO VISIBILITY.

OHZ001>008-015>018-024>027-034-035-043-044-061700-
   NORTHWEST OHIO

CITY           SKY/WX    TMP DP  RH WIND       PRES   REMARKS
DEFIANCE       SUNNY     64  41  42 CALM      29.99F
FINDLAY        SUNNY     66  39  37 N7        29.97S
TOLEDO EXPRESS SUNNY     64  36  35 NW7       29.97F
TOLEDO EXEC    SUNNY     66  42  41 N8        29.97F
LIMA           SUNNY     62  43  49 N7        29.98S
$$

OHZ009>014-019>023-028>033-038-089-061700-
   NORTHEAST OHIO

CITY           SKY/WX    TMP DP  RH WIND       PRES   REMARKS
CLE-HOPKINS    SUNNY     59  43  55 N9        29.96R
CLE-LAKEFRONT  SUNNY     54  46  74 W9        29.93S
CUY CO. ARPT   MOSUNNY   59  46  63 N9        29.93S
LORAIN-ELYRIA  SUNNY     58  42  55 N12       29.95S
ASHTABULA      SUNNY     59  42  53 VRB7      29.91R
AKRON-CANTON   MOSUNNY   65  42  43 N13       29.89S
WOOSTER        SUNNY     63  43  48 N18       29.91F
MANSFIELD      SUNNY     63  44  50 N10       29.94S
YOUNGSTOWN     PTSUNNY   63  40  42 N15G24    29.87S
$$

OHZ042-051>053-060>062-070>072-077>081-061700-
  SOUTHWEST OHIO

CITY           SKY/WX    TMP DP  RH WIND       PRES   REMARKS
CINC-COVINGTON MOSUNNY   64  44  48 NW7       29.99S
CINC-LUNKEN    MOSUNNY   65  43  44 N14       29.99S
HAMILTON       SUNNY     66  44  45 N8        30.00S
DAYTON         MOSUNNY   64  40  41 N13       29.99S
WRIGHT-PAT AFB SUNNY     64  43  45 NW8       29.98R
DAYTON GENERAL SUNNY     65  40  39 N10G18    29.98S
WILMINGTON     SUNNY     63  44  50 N10       29.97R
$$

OHZ036-037-039>041-045>050-054>059-063>069-073>076-082>088-061700-
  CENTRAL AND SOUTHEAST OHIO

CITY           SKY/WX    TMP DP  RH WIND       PRES   REMARKS
COLUMBUS       MOSUNNY   64  41  42 NW14G21   29.94R
OSU AIRPORT    SUNNY     64  41  42 N14G23    29.94S
BOLTON FIELD   SUNNY     64  43  45 N16G23    29.96R
RICKENBACK AFB NOT AVBL
NEWARK         SUNNY     68  40  35 N16G22    29.91S
MARION         SUNNY     65  41  41 N13       29.97R
LANCASTER      MOSUNNY   66  45  46 N14G22    29.93S
ZANESVILLE     MOSUNNY   67  41  38 N15G25    29.89S
NEW PHILLY     SUNNY     64  42  44 N13       29.89S
$$




USA.gov is the U.S. government's official web portal to all federal, state and local government web resources and services.